Location: Aurora Center
(43.5271°N, 98.5894°W)
Time: 02:06:18
(UTC-05:00)

BlueWalker 3 - Pass Details

Date: 21 June 2024
Orbit: 480 x 492 km, 53.2° (Epoch: 15 July)

Event Time Altitude Azimuth Distance (km) Brightness Sun altitude
Rises 04:45:54 0° 301° (WNW) 2,538 5.4 -10.2°
Reaches altitude 10° 04:48:09 10° 294° (WNW) 1,656 4.4 -9.9°
Maximum altitude 04:51:40 41° 223° (SW) 712 2.2 -9.4°
Drops below altitude 10° 04:55:11 10° 153° (SSE) 1,650 4.4 -9.0°
Sets 04:57:24 0° 146° (SE) 2,527 5.4 -8.7°
